• In Hungary
  • List of Countries
  • For 7 days
  • Water Temperature
  • Satellite Maps
  • Weather Map
  • News
  • Weather Widgets
  • user-avatar
    Login

    Hourly Weather Talovka

    Today, 24 June, Sunday

    Time Temperature Precipitation Wind Pressure Humidity
    00:00 +14°C° 0 mm 2 mps 712 mmHg 85%
    01:00 +13°C° 0 mm 1 mps 712 mmHg 87%
    02:00 +13°C° 0 mm 2 mps 712 mmHg 88%
    03:00 +13°C° 0 mm 2 mps 712 mmHg 88%
    04:00 +12°C° 0 mm 2 mps 712 mmHg 89%
    05:00 +15°C° 0 mm 2 mps 712 mmHg 80%
    06:00 +17°C° 0 mm 3 mps 712 mmHg 71%
    07:00 +19°C° 0 mm 4 mps 712 mmHg 62%
    08:00 +20°C° 0.2 mm 4 mps 712 mmHg 60%
    09:00 +21°C° 0.2 mm 4 mps 712 mmHg 58%
    10:00 +22°C° 0.2 mm 5 mps 712 mmHg 55%
    11:00 +23°C° 0.3 mm 5 mps 712 mmHg 54%
    12:00 +23°C° 0.3 mm 5 mps 712 mmHg 53%
    13:00 +23°C° 0.3 mm 5 mps 711 mmHg 51%
    14:00 +22°C° 0.4 mm 4 mps 711 mmHg 56%
    15:00 +21°C° 0.4 mm 4 mps 711 mmHg 61%
    16:00 +20°C° 0.4 mm 3 mps 711 mmHg 66%
    17:00 +19°C° 0.3 mm 3 mps 711 mmHg 71%
    18:00 +18°C° 0.3 mm 3 mps 711 mmHg 75%
    19:00 +18°C° 0.3 mm 3 mps 711 mmHg 80%
    20:00 +17°C° 0.2 mm 3 mps 711 mmHg 82%
    21:00 +16°C° 0.2 mm 2 mps 711 mmHg 83%
    22:00 +16°C° 0.2 mm 2 mps 711 mmHg 85%
    23:00 +15°C° 0.2 mm 2 mps 710 mmHg 87%

    Tomorrow, 25 June, Monday

    Time Temperature Precipitation Wind Pressure Humidity
    00:00 +15°C° 0.2 mm 2 mps 710 mmHg 89%
    01:00 +15°C° 0.2 mm 2 mps 710 mmHg 91%
    02:00 +14°C° 0 mm 2 mps 710 mmHg 92%
    03:00 +14°C° 0 mm 2 mps 710 mmHg 93%
    04:00 +14°C° 0 mm 2 mps 710 mmHg 94%
    05:00 +15°C° 0 mm 2 mps 710 mmHg 89%
    06:00 +16°C° 0 mm 3 mps 711 mmHg 83%
    07:00 +18°C° 0 mm 3 mps 711 mmHg 78%
    08:00 +19°C° 0 mm 4 mps 711 mmHg 71%
    09:00 +21°C° 0 mm 4 mps 711 mmHg 65%
    10:00 +22°C° 0 mm 4 mps 711 mmHg 59%
    11:00 +22°C° 0.1 mm 4 mps 711 mmHg 60%
    12:00 +22°C° 0.1 mm 4 mps 711 mmHg 60%
    13:00 +22°C° 0.1 mm 4 mps 711 mmHg 60%
    14:00 +22°C° 0.6 mm 4 mps 711 mmHg 65%
    15:00 +21°C° 0.6 mm 4 mps 711 mmHg 69%
    16:00 +21°C° 0.6 mm 3 mps 711 mmHg 74%
    17:00 +20°C° 0.2 mm 3 mps 711 mmHg 77%
    18:00 +19°C° 0.2 mm 3 mps 712 mmHg 81%
    19:00 +18°C° 0.2 mm 3 mps 712 mmHg 84%
    20:00 +17°C° 0 mm 2 mps 712 mmHg 88%
    21:00 +16°C° 0 mm 2 mps 713 mmHg 92%
    22:00 +15°C° 0 mm 1 mps 713 mmHg 96%
    23:00 +15°C° 0 mm 1 mps 713 mmHg 96%

    Day after tomorrow, 26 June, Tuesday

    Time Temperature Precipitation Wind Pressure Humidity
    00:00 +14°C° 0 mm 1 mps 713 mmHg 97%
    01:00 +14°C° 0 mm 1 mps 713 mmHg 97%
    02:00 +14°C° 0 mm 2 mps 713 mmHg 97%
    03:00 +14°C° 0 mm 2 mps 713 mmHg 97%
    04:00 +13°C° 0 mm 2 mps 714 mmHg 97%
    05:00 +15°C° 0 mm 2 mps 714 mmHg 92%
    06:00 +17°C° 0 mm 2 mps 714 mmHg 86%
    07:00 +19°C° 0 mm 2 mps 714 mmHg 81%
    08:00 +20°C° 0 mm 2 mps 714 mmHg 72%
    09:00 +22°C° 0 mm 3 mps 714 mmHg 63%
    10:00 +25°C° 0 mm 3 mps 714 mmHg 54%
    11:00 +26°C° 0 mm 3 mps 714 mmHg 50%
    12:00 +27°C° 0 mm 4 mps 714 mmHg 45%
    13:00 +27°C° 0 mm 4 mps 714 mmHg 41%
    14:00 +27°C° 0 mm 4 mps 714 mmHg 40%
    15:00 +28°C° 0 mm 4 mps 714 mmHg 38%
    16:00 +28°C° 0 mm 4 mps 714 mmHg 37%
    17:00 +26°C° 0 mm 3 mps 715 mmHg 44%
    18:00 +25°C° 0 mm 3 mps 715 mmHg 51%
    19:00 +24°C° 0 mm 2 mps 715 mmHg 58%
    20:00 +21°C° 0 mm 2 mps 715 mmHg 64%
    21:00 +19°C° 0 mm 2 mps 715 mmHg 71%
    22:00 +18°C° 0 mm 1 mps 716 mmHg 78%
    23:00 +16°C° 0 mm 1 mps 716 mmHg 78%

    27 June, Wednesday

    Time Temperature Precipitation Wind Pressure Humidity
    00:00 +16°C° 0 mm 1 mps 716 mmHg 78%
    01:00 +16°C° 0 mm 1 mps 716 mmHg 78%
    02:00 +16°C° 0 mm 1 mps 716 mmHg 79%
    03:00 +15°C° 0 mm 1 mps 716 mmHg 80%
    04:00 +15°C° 0 mm 1 mps 716 mmHg 82%
    05:00 +19°C° 0 mm 1 mps 717 mmHg 73%
    06:00 +21°C° 0 mm 1 mps 717 mmHg 64%
    07:00 +24°C° 0 mm 1 mps 717 mmHg 56%
    08:00 +25°C° 0 mm 2 mps 717 mmHg 50%
    09:00 +27°C° 0 mm 2 mps 717 mmHg 45%
    10:00 +29°C° 0 mm 2 mps 717 mmHg 39%
    11:00 +29°C° 0 mm 3 mps 717 mmHg 36%
    12:00 +30°C° 0 mm 3 mps 716 mmHg 34%
    13:00 +31°C° 0 mm 3 mps 716 mmHg 31%
    14:00 +31°C° 0 mm 3 mps 715 mmHg 30%
    15:00 +31°C° 0 mm 3 mps 715 mmHg 30%
    16:00 +31°C° 0 mm 3 mps 715 mmHg 30%
    17:00 +29°C° 0 mm 2 mps 715 mmHg 36%
    18:00 +28°C° 0 mm 2 mps 714 mmHg 43%
    19:00 +26°C° 0 mm 1 mps 714 mmHg 50%
    20:00 +24°C° 0 mm 1 mps 714 mmHg 54%
    21:00 +22°C° 0 mm 1 mps 714 mmHg 58%
    22:00 +20°C° 0 mm 1 mps 714 mmHg 62%
    23:00 +20°C° 0 mm 1 mps 714 mmHg 62%

    28 June, Thursday

    Time Temperature Precipitation Wind Pressure Humidity
    00:00 +19°C° 0 mm 1 mps 714 mmHg 62%
    01:00 +19°C° 0 mm 1 mps 713 mmHg 62%
    02:00 +19°C° 0 mm 1 mps 713 mmHg 62%
    03:00 +19°C° 0 mm 1 mps 713 mmHg 63%
    04:00 +19°C° 0 mm 1 mps 713 mmHg 63%
    05:00 +21°C° 0 mm 1 mps 713 mmHg 56%
    06:00 +24°C° 0 mm 1 mps 713 mmHg 49%
    07:00 +27°C° 0 mm 1 mps 713 mmHg 43%
    08:00 +29°C° 0 mm 1 mps 712 mmHg 38%
    09:00 +31°C° 0 mm 1 mps 712 mmHg 33%
    10:00 +34°C° 0 mm 1 mps 712 mmHg 28%
    11:00 +34°C° 0 mm 1 mps 711 mmHg 27%
    12:00 +35°C° 0 mm 1 mps 711 mmHg 25%
    13:00 +37°C° 0 mm 2 mps 710 mmHg 24%
    14:00 +37°C° 0 mm 2 mps 710 mmHg 24%
    15:00 +36°C° 0 mm 2 mps 709 mmHg 24%
    16:00 +36°C° 0 mm 2 mps 709 mmHg 25%
    17:00 +34°C° 0 mm 2 mps 709 mmHg 31%
    18:00 +31°C° 0 mm 2 mps 709 mmHg 37%
    19:00 +29°C° 0 mm 2 mps 708 mmHg 44%
    20:00 +27°C° 0 mm 1 mps 708 mmHg 47%
    21:00 +25°C° 0 mm 1 mps 708 mmHg 50%
    22:00 +22°C° 0 mm 1 mps 708 mmHg 53%
    23:00 +22°C° 0 mm 1 mps 708 mmHg 54%

    29 June, Friday

    Time Temperature Precipitation Wind Pressure Humidity
    00:00 +22°C° 0 mm 1 mps 708 mmHg 54%
    01:00 +21°C° 0 mm 1 mps 708 mmHg 55%
    02:00 +21°C° 0 mm 1 mps 708 mmHg 56%
    03:00 +20°C° 0 mm 1 mps 708 mmHg 57%
    04:00 +20°C° 0 mm 1 mps 707 mmHg 58%
    05:00 +22°C° 0 mm 1 mps 708 mmHg 53%
    06:00 +25°C° 0 mm 1 mps 708 mmHg 49%
    07:00 +27°C° 0 mm 1 mps 708 mmHg 44%
    08:00 +29°C° 0 mm 1 mps 708 mmHg 40%
    09:00 +30°C° 0 mm 2 mps 708 mmHg 36%
    10:00 +32°C° 0 mm 2 mps 708 mmHg 32%
    11:00 +32°C° 0 mm 2 mps 707 mmHg 30%
    12:00 +34°C° 0 mm 3 mps 707 mmHg 28%
    13:00 +35°C° 0 mm 3 mps 707 mmHg 26%
    14:00 +34°C° 0 mm 3 mps 707 mmHg 27%
    15:00 +34°C° 0 mm 3 mps 707 mmHg 28%
    16:00 +32°C° 0 mm 2 mps 707 mmHg 28%
    17:00 +30°C° 0 mm 2 mps 707 mmHg 36%
    18:00 +28°C° 0 mm 2 mps 707 mmHg 43%
    19:00 +26°C° 0 mm 2 mps 707 mmHg 50%
    20:00 +24°C° 0.2 mm 2 mps 707 mmHg 59%
    21:00 +23°C° 0.2 mm 2 mps 707 mmHg 69%
    22:00 +20°C° 0.2 mm 2 mps 707 mmHg 78%
    23:00 +20°C° 0.5 mm 2 mps 707 mmHg 82%
    Show more